Flag for Germany Weather past 2 weeks in Cuxhaven, Lower Saxony, Germany

Now
45 °F

Partly sunny.


Feels Like: 37 °F
Forecast: 47 / 51 °F
Wind: 18 mph from Southwest

Location: Nordholz

Current Time: Dec 21, 2014 at 2:12:56 PM

Latest Report: Dec 21, 2014 at 1:20 PM


Visibility: N/A

Pressure: 30.09 "Hg

Humidity: 87%

Dew point: 41 °F

Location of CuxhavenLocation

Historic Weather in Cuxhaven — Graph

°F

Cuxhaven temperature yesterday

Maximum temperature yesterday: 45 °F (at 2:20 PM)
Minimum temperature yesterday: 37 °F (at 11:20 AM)
Average temperature yesterday: 42 °F

Past Weeks' High & Low Weather Summary

 TemperatureHumidityPressure
High52 °F (Dec 18, 6:20 PM)100% (Dec 6, 7:20 PM)30.30 "Hg (Dec 6, 7:20 PM)
Low32 °F (Dec 7, 2:20 AM)75% (Dec 13, 1:20 AM)29.12 "Hg (Dec 12, 12:20 PM)
Average40 °F90%29.78 "Hg
* Reported Dec 6 12:20 PM — Dec 21 12:20 PM, Cuxhaven, Weather by CustomWeather, © 2014

Note: Actual official high and low records may vary slightly from our data, if they occured in-between our weather recording intervals... More about our weather records

Advertising

Cuxhaven weather history for previous 24 hours

 ConditionsComfort  
Time TempWeatherWind HumidityBarometerVisibility
12:20 PM
Dec 21
43 °FPartly sunny.18 mph93%30.12 "HgN/A
11:20 AM41 °FPartly sunny.16 mph93%30.15 "HgN/A
10:20 AM41 °FBroken clouds.17 mph93%30.15 "HgN/A
9:20 AM39 °FPartly sunny.15 mph93%30.18 "HgN/A
8:20 AM41 °FPassing clouds.15 mph87%30.18 "HgN/A
7:20 AM41 °FPassing clouds.15 mph87%30.18 "HgN/A
6:20 AM43 °FPassing clouds.14 mph81%30.18 "HgN/A
5:20 AM43 °FPassing clouds.15 mph81%30.15 "HgN/A
4:20 AM41 °FPassing clouds.15 mph87%30.15 "HgN/A
3:20 AM43 °FPassing clouds.23 mph76%30.12 "HgN/A
2:20 AM43 °FPassing clouds.20 mph81%30.12 "HgN/A
1:20 AM43 °FSprinkles. Passing clouds.28 mph76%30.09 "HgN/A
12:20 AM45 °FPassing clouds.25 mph76%30.07 "HgN/A
11:20 PM
Dec 20
45 °FPassing clouds.26 mph76%30.04 "HgN/A
10:20 PM43 °FPassing clouds.25 mph81%30.01 "HgN/A
9:20 PM43 °FPassing clouds.24 mph76%29.95 "HgN/A
8:20 PM43 °FPassing clouds.28 mph76%29.92 "HgN/A
7:20 PM43 °FPassing clouds.25 mph76%29.92 "HgN/A
6:20 PM39 °FScattered showers. Partly cloudy.17 mph81%29.86 "HgN/A
5:20 PM41 °FScattered showers. Partly cloudy.28 mph76%29.83 "HgN/A
4:20 PM43 °FPartly cloudy.28 mph81%29.77 "HgN/A
3:20 PM43 °FBroken clouds.17 mph81%29.74 "HgN/A
2:20 PM45 °FBroken clouds.24 mph81%29.74 "HgN/A
Weather by CustomWeather, © 2014

See weather overviewHow to use our weather pages